DAL1275 KTPA-KRDU

Flight info

Callsign DAL1275
Flight time N/A
Altitude 37000
Route BAYPO2 CAMJO Q99 TEEEM PETTO DMSTR2
Aircraft A320/M-SDE3FGHIRWY/LB1

Departure

Time 2026-04-30 14:40
Airport Tampa International Airport (KTPA)

Arrival

Time N/A
Airport Raleigh-Durham International Airport (KRDU)
Time Latitude Longitude Altitude Speed Heading
2026-04-30 14:03 27.98073 -82.53870 39 ft 0 kts 92°
2026-04-30 14:30 27.98070 -82.53926 34 ft 2 kts 85°
2026-04-30 14:31 27.98075 -82.53961 35 ft 2 kts 167°
2026-04-30 14:31 27.98080 -82.53963 36 ft 0 kts 188°
2026-04-30 14:34 27.98076 -82.53964 35 ft 3 kts 188°
2026-04-30 14:34 27.98051 -82.53975 37 ft 5 kts 207°
2026-04-30 14:34 27.98028 -82.54014 36 ft 8 kts 255°
2026-04-30 14:35 27.97925 -82.54057 34 ft 13 kts 179°
2026-04-30 14:35 27.97789 -82.54061 33 ft 16 kts 184°
2026-04-30 14:35 27.97667 -82.54067 32 ft 19 kts 182°
2026-04-30 14:36 27.97534 -82.54071 34 ft 19 kts 181°
2026-04-30 14:36 27.97397 -82.54073 36 ft 20 kts 181°
2026-04-30 14:36 27.97257 -82.54080 37 ft 21 kts 181°
2026-04-30 14:36 27.97111 -82.54085 39 ft 21 kts 182°
2026-04-30 14:37 27.96963 -82.54090 40 ft 22 kts 181°
2026-04-30 14:37 27.96801 -82.54096 37 ft 25 kts 182°
2026-04-30 14:37 27.96625 -82.54102 35 ft 26 kts 182°
2026-04-30 14:37 27.96489 -82.54107 32 ft 17 kts 182°
2026-04-30 14:38 27.96418 -82.54168 29 ft 13 kts 271°
2026-04-30 14:38 27.96454 -82.54223 31 ft 6 kts 334°
2026-04-30 14:38 27.96484 -82.54228 32 ft 3 kts 358°
2026-04-30 14:38 27.96490 -82.54228 32 ft 0 kts 359°
2026-04-30 14:39 27.96583 -82.54227 35 ft 30 kts
2026-04-30 14:39 27.96971 -82.54214 41 ft 90 kts
2026-04-30 14:40 27.98973 -82.54128 172 ft 179 kts
2026-04-30 14:40 28.00207 -82.54109 741 ft 180 kts 354°
2026-04-30 14:40 28.01463 -82.54233 1484 ft 176 kts 354°
2026-04-30 14:40 28.02729 -82.54327 2037 ft 192 kts 353°
2026-04-30 14:41 28.04116 -82.54473 2406 ft 216 kts 351°
2026-04-30 14:41 28.05724 -82.54667 2845 ft 241 kts 351°
2026-04-30 14:41 28.07476 -82.54877 3396 ft 262 kts 352°
2026-04-30 14:41 28.09294 -82.55090 4239 ft 271 kts 351°
2026-04-30 14:42 28.11212 -82.55310 5112 ft 276 kts 351°
2026-04-30 14:42 28.13111 -82.55523 6048 ft 279 kts 350°
2026-04-30 14:42 28.15068 -82.55739 6956 ft 280 kts 350°
2026-04-30 14:42 28.17012 -82.55950 7826 ft 282 kts 349°
2026-04-30 14:43 28.18970 -82.56162 8730 ft 283 kts 349°
2026-04-30 14:43 28.20914 -82.56375 9592 ft 286 kts 349°
2026-04-30 14:43 28.22931 -82.56598 10305 ft 294 kts 349°
2026-04-30 14:43 28.25020 -82.56838 10557 ft 317 kts 349°
2026-04-30 14:44 28.27286 -82.57100 10895 ft 334 kts 349°
2026-04-30 14:44 28.29619 -82.57362 11547 ft 340 kts 349°
2026-04-30 14:44 28.31990 -82.57620 12285 ft 344 kts 349°
2026-04-30 14:44 28.34383 -82.57879 13040 ft 347 kts 349°
2026-04-30 14:45 28.36795 -82.58128 13781 ft 350 kts 351°
2026-04-30 14:45 28.39233 -82.58274 14424 ft 355 kts 353°
2026-04-30 14:45 28.41733 -82.58341 15061 ft 359 kts 354°
2026-04-30 14:45 28.44237 -82.58370 15679 ft 363 kts 354°
2026-04-30 14:46 28.46776 -82.58392 16312 ft 367 kts 354°
2026-04-30 14:46 28.48475 -82.58410 16733 ft 368 kts 354°
2026-04-30 14:46 28.51086 -82.58451 17359 ft 372 kts 353°
2026-04-30 14:46 28.53646 -82.58506 17961 ft 375 kts 353°
2026-04-30 14:47 28.56270 -82.58570 18526 ft 379 kts 353°
2026-04-30 14:47 28.58915 -82.58637 19053 ft 382 kts 353°
2026-04-30 14:47 28.61578 -82.58708 19588 ft 384 kts 353°
2026-04-30 14:47 28.64259 -82.58780 20123 ft 388 kts 353°
2026-04-30 14:48 28.66968 -82.58871 20659 ft 389 kts 350°
2026-04-30 14:48 28.70562 -82.59343 21359 ft 391 kts 347°
2026-04-30 14:48 28.73269 -82.59723 21884 ft 394 kts 347°
2026-04-30 14:48 28.75116 -82.59982 22224 ft 396 kts 347°
2026-04-30 14:49 28.77823 -82.60362 22760 ft 398 kts 347°
2026-04-30 14:49 28.80577 -82.60748 23248 ft 401 kts 347°
2026-04-30 14:49 28.83388 -82.61141 23707 ft 404 kts 347°
2026-04-30 14:49 28.86152 -82.61527 24114 ft 406 kts 347°
2026-04-30 14:50 28.91825 -82.62314 24906 ft 409 kts 347°
2026-04-30 14:50 28.94655 -82.62704 25290 ft 411 kts 347°
2026-04-30 14:51 29.00309 -82.63489 26032 ft 415 kts 347°
2026-04-30 14:51 29.03222 -82.63901 26402 ft 416 kts 347°
2026-04-30 14:51 29.08993 -82.64721 27146 ft 420 kts 347°
2026-04-30 14:52 29.11900 -82.65131 27499 ft 422 kts 347°
2026-04-30 14:52 29.17740 -82.65945 28186 ft 425 kts 347°
2026-04-30 14:52 29.20676 -82.66353 28519 ft 427 kts 347°
2026-04-30 14:53 29.26594 -82.67176 29172 ft 430 kts 347°
2026-04-30 14:53 29.29572 -82.67593 29479 ft 432 kts 347°
2026-04-30 14:54 29.35521 -82.68434 30086 ft 434 kts 346°
2026-04-30 14:54 29.41571 -82.69266 30606 ft 439 kts 349°
2026-04-30 14:55 29.47703 -82.69291 31130 ft 442 kts 353°
2026-04-30 14:55 29.50773 -82.69266 31465 ft 440 kts 353°
2026-04-30 14:55 29.56878 -82.69222 32120 ft 437 kts 353°
2026-04-30 14:56 29.62933 -82.69181 32802 ft 434 kts 353°
2026-04-30 14:56 29.68938 -82.69143 33488 ft 430 kts 353°
2026-04-30 14:57 29.71932 -82.69128 33825 ft 428 kts 353°
2026-04-30 14:57 29.77865 -82.69099 34429 ft 425 kts 353°
2026-04-30 14:58 29.83768 -82.69060 35003 ft 422 kts 353°
2026-04-30 14:58 29.86689 -82.69040 35272 ft 421 kts 353°
2026-04-30 14:58 29.92537 -82.69006 35825 ft 418 kts 353°
2026-04-30 14:59 29.98333 -82.68969 36355 ft 415 kts 353°
2026-04-30 15:00 30.06942 -82.68907 36945 ft 412 kts 353°
2026-04-30 15:01 30.18391 -82.68837 36974 ft 410 kts 353°
2026-04-30 15:01 30.26927 -82.68788 36948 ft 408 kts 352°
2026-04-30 15:02 30.32598 -82.68759 36945 ft 407 kts 352°
2026-04-30 15:03 30.46776 -82.68667 36945 ft 408 kts 352°
2026-04-30 15:04 30.61064 -82.66473 36950 ft 418 kts
2026-04-30 15:06 30.75366 -82.63431 36982 ft 418 kts
2026-04-30 15:07 30.86780 -82.60986 36968 ft 416 kts
2026-04-30 15:08 30.98115 -82.58551 36979 ft 415 kts
2026-04-30 15:09 31.12014 -82.54279 36951 ft 427 kts 17°
2026-04-30 15:10 31.22568 -82.47869 36969 ft 428 kts 17°
2026-04-30 15:11 31.38338 -82.38271 36979 ft 423 kts 16°
2026-04-30 15:13 31.51388 -82.30293 36959 ft 423 kts 16°
2026-04-30 15:14 31.69683 -82.19087 36951 ft 424 kts 16°
2026-04-30 15:17 31.93219 -82.04596 36948 ft 426 kts 15°
2026-04-30 15:19 32.14260 -81.91512 36939 ft 434 kts 19°